This is the latest recevied weather packets stored in our database for station/object VE3MNX. If no packets are shown the sender has not sent any weather packets the latest 10 day(s).
| Time | Temp. | Humidity | Pressure | Rain* | Wind** | Luminosity | Snow |
|---|---|---|---|---|---|---|---|
| 1777680493 | 6.11° C | 79% | 1013.9 hPa | 0 mm | - | - | - |
| 1777679594 | 6.11° C | 75% | 1013.9 hPa | 0 mm | - | - | - |
| 1777678693 | 6.67° C | 75% | 1013.5 hPa | 0 mm | - | - | - |
| 1777677795 | 6.67° C | 76% | 1013.5 hPa | 0 mm | - | - | - |
| 1777676892 | 7.22° C | 74% | 1013.2 hPa | 0 mm | - | - | - |
| 1777675992 | 7.78° C | 74% | 1013.2 hPa | 0 mm | - | - | - |
| 1777675092 | 7.22° C | 71% | 1013.2 hPa | 0 mm | - | - | - |
| 1777674193 | 7.78° C | 72% | 1013.5 hPa | 0 mm | - | - | - |
| 1777673292 | 6.67° C | 79% | 1013.5 hPa | 0 mm | - | - | - |
| 1777672393 | 6.67° C | 80% | 1013.2 hPa | 0 mm | - | - | - |
| 1777671494 | 7.22° C | 83% | 1013.2 hPa | 0 mm | - | - | - |
| 1777670594 | 6.11° C | 93% | 1013.2 hPa | 0 mm | - | - | - |
| 1777669692 | 5.56° C | 93% | 1012.9 hPa | 0 mm | - | - | - |
| 1777668792 | 5.56° C | 93% | 1012.9 hPa | 0 mm | - | - | - |
| 1777667894 | 6.67° C | 92% | 1012.5 hPa | 0 mm | - | - | - |
| 1777666993 | 6.67° C | 91% | 1012.5 hPa | 0 mm | - | - | - |
| 1777666092 | 6.67° C | 91% | 1012.5 hPa | 0 mm | - | - | - |
| 1777665195 | 6.11° C | 93% | 1012.9 hPa | 0 mm | - | - | - |
| 1777664293 | 5.56° C | 94% | 1012.9 hPa | 0 mm | - | - | - |
| 1777663394 | 6.11° C | 94% | 1012.9 hPa | 0 mm | - | - | - |
| 1777662493 | 6.67° C | 93% | 1012.5 hPa | 0.25 mm | - | - | - |
| 1777661594 | 6.67° C | 94% | 1012.5 hPa | 0.25 mm | - | - | - |
| 1777660692 | 5.56° C | 94% | 1012.9 hPa | 0.25 mm | - | - | - |
| 1777659796 | 5.56° C | 94% | 1012.5 hPa | 0.25 mm | - | - | - |
| 1777658894 | 5.56° C | 93% | 1012.5 hPa | 0 mm | - | - | - |
* Rain latest hour (hover to see other rain measurements)
** Current wind speed in m/s (hover to see current wind gust speed)